Resia Pass, Italy

10:22 PM CEST on April 19, 2018 (GMT +0200)
Resia Pass

Weather History for LIVE - March, 2013

Change the Weather History Date:

Monday, March 4, 2013

  Actual Average Record
Temperature  
Mean Temperature 35 °F -  
Max Temperature 46 °F 38 °F 53 °F (2007)
Min Temperature 24 °F 21 °F 8 °F (2005)
Degree Days  
Heating Degree Days 30    
Moisture  
Dew Point 19 °F    
Average Humidity 57    
Maximum Humidity 80    
Minimum Humidity 23    
Precipitation  
Precipitation 0.00 in - - ()
Sea Level Pressure  
Sea Level Pressure 30.04 in    
Wind  
Wind Speed 4 mph ()    
Max Wind Speed 10 mph    
Max Gust Speed -    
Averages and records for this station are not official NWS values.
T = Trace of Precipitation, MM = Missing Value Source: Averaged Metar Reports

Daily Weather History Graph

Daily Weather History Graph

Search for Another Location

Airport or City:

Astronomy

Mar. 04, 2013 Rise Set
Actual Time 6:52 AM CET 6:08 PM CET
Civil Twilight 6:21 AM CET 6:38 PM CET
Nautical Twilight 5:46 AM CET 7:13 PM CET
Astronomical Twilight 5:11 AM CET 7:48 PM CET
Moon 12:58 AM CET (3/4) 10:19 AM CET (3/4)
Length of Visible Light 12h 16m
Length of Day
11h 15m
Waning Gibbous, 55% of the Moon is Illuminated
Mar 4
Waning Gibbous
Mar 4
Last Quarter
Mar 11
New
Mar 19
First Quarter
Mar 27
Full

Hourly Weather History & Observations

Time (CET) Temp. Windchill Dew Point Humidity Pressure Visibility Wind Dir Wind Speed Gust Speed Precip Events Conditions
12:55 AM 30.2 °F 25.4 °F 19.4 °F 64% 30.04 in - North 4.6 mph - N/A   Clear
1:55 AM 28.4 °F 23.3 °F 19.4 °F 69% 30.04 in - North 4.6 mph - N/A   Clear
2:55 AM 26.6 °F 21.2 °F 17.6 °F 69% 30.04 in - North 4.6 mph - N/A   Clear
3:55 AM 26.6 °F 21.2 °F 17.6 °F 69% 30.04 in - North 4.6 mph - N/A   Clear
4:55 AM 26.6 °F 21.2 °F 19.4 °F 74% 30.04 in - North 4.6 mph - N/A   Clear
5:55 AM 24.8 °F 16.9 °F 17.6 °F 74% 30.04 in - NNE 6.9 mph - N/A   Clear
6:55 AM 24.8 °F 17.9 °F 17.6 °F 74% 30.04 in - North 5.8 mph - N/A   Clear
7:55 AM 24.8 °F 17.9 °F 17.6 °F 74% 30.04 in - North 5.8 mph - N/A   Clear
8:55 AM 24.8 °F 17.9 °F 17.6 °F 74% 30.04 in - North 5.8 mph - N/A   Clear
9:55 AM 30.2 °F 24.3 °F 21.2 °F 69% 30.04 in - North 5.8 mph - N/A   Clear
10:55 AM 37.4 °F 34.9 °F 19.4 °F 48% 30.04 in - North 3.5 mph - N/A   Clear
11:55 AM 42.8 °F 38.6 °F 14.0 °F 31% 30.04 in - South 6.9 mph - N/A   Clear
12:55 PM 42.8 °F 38.0 °F 8.6 °F 25% 30.04 in - South 8.1 mph - N/A   Clear
1:55 PM 46.4 °F 42.4 °F 10.4 °F 23% 30.01 in - South 8.1 mph - N/A   Clear
2:55 PM 46.4 °F 41.5 °F 12.2 °F 25% 30.01 in - South 10.4 mph - N/A   Clear
3:55 PM 44.6 °F 39.7 °F 19.4 °F 37% 30.01 in - SSE 9.2 mph - N/A   Clear
4:55 PM 44.6 °F 40.2 °F 17.6 °F 34% 30.01 in - SSE 8.1 mph - N/A   Clear
5:55 PM 42.8 °F 39.3 °F 17.6 °F 36% 30.01 in - South 5.8 mph - N/A   Clear
6:55 PM 39.2 °F - 19.4 °F 45% 30.04 in - Variable 1.2 mph - N/A   Clear
7:55 PM 37.4 °F - 24.8 °F 60% 30.06 in - Calm Calm - N/A   Clear
8:55 PM 33.8 °F - 24.8 °F 70% 30.06 in - Calm Calm - N/A   Clear
9:55 PM 32.0 °F - 24.8 °F 75% 30.09 in - Variable 2.3 mph - N/A   Clear
10:55 PM 30.2 °F - 24.8 °F 80% 30.09 in - Calm Calm - N/A   Clear
11:55 PM 28.4 °F - 23.0 °F 80% 30.09 in - Calm Calm - N/A   Clear